Regional Weather Roundup
Issued by NWS

Home | Current Version | Previous Version | Graphics & Text | Print | Product List | Glossary On
Versions: 1 2 3 4 5 6 7 8 9 10 11 12 13 14 15 16 17 18 19 20 21 22 23 24 25 26 27 28 29 30 31 32 33 34 35 36 37 38 39 40 41 42 43 44 45 46 47 48 49 50
560
ASUS45 KPSR 261510
RWRAZ

ARIZONA REGIONAL HOURLY WEATHER ROUNDUP
NATIONAL WEATHER SERVICE TUCSON AZ
800 AM MST FRI MAY 26 2017

NOTE: FAIR INDICATES FEW OR NO CLOUDS BELOW 12,000 FEET WITH NO
SIGNIFICANT WEATHER AND/OR OBSTRUCTIONS TO VISIBILITY.

AZZ001>003-036-261600-
NORTHWEST ARIZONA

CITY           SKY/WX    TMP DP  RH WIND       PRES   REMARKS
BULLHEAD CITY  SUNNY     77  36  22 SW16      29.74R
KINGMAN        SUNNY     74  18  12 SW16G25   29.83S
$$

AZZ004>008-015-016-018-261600-
NORTH CENTRAL ARIZONA

CITY           SKY/WX    TMP DP  RH WIND       PRES   REMARKS
GRAND CANYON   SUNNY     58  21  24 S13G26    30.00S
WILLIAMS       SUNNY     59  21  23 S16       30.01R
PRESCOTT       SUNNY     63  26  24 SE16      29.96R
FLAGSTAFF      SUNNY     54  19  25 SW25G36   30.05R
PAYSON         SUNNY     64  16  15 S12G22    30.05R
PAGE           SUNNY     73  22  14 S6        29.83F
$$

AZZ009>014-017-261600-
NORTHEAST ARIZONA

CITY           SKY/WX    TMP DP  RH WIND       PRES   REMARKS
WINSLOW        SUNNY     69  16  13 SE8       29.96R
SAINT JOHNS    SUNNY     69  17  13 SW14G30   30.02S
WINDOW ROCK    SUNNY     62  20  19 S15G21    30.08R
SHOW LOW       SUNNY     59  18  20 S30G37    30.03S
$$

AZZ023-261600-
GREATER PHOENIX AREA

CITY           SKY/WX    TMP DP  RH WIND       PRES   REMARKS
PHOENIX        SUNNY     79  31  17 S13G29    29.82R
BUCKEYE        SUNNY     75  32  20 SE6       29.83S
GLENDALE       SUNNY     79  34  19 N5        29.84R
LUKE AFB       SUNNY     77  34  20 CALM      29.82R
DEER VALLEY    SUNNY     77  29  17 S9        29.84R
SCOTTSDALE     SUNNY     77  31  18 S8        29.86R
MESA-GATEWAY   SUNNY     79  30  17 SE9       29.86R
CHANDLER       SUNNY     79  30  17 S6        29.84R
$$

AZZ027-028-261600-
SOUTHWEST MARICOPA COUNTY AND PINAL COUNTY

CITY           SKY/WX    TMP DP  RH WIND       PRES   REMARKS
CASA GRANDE    SUNNY     79  33  19 S7        29.87R
$$

AZZ503-504-507>509-261600-
SOUTHEAST ARIZONA

CITY           SKY/WX    TMP DP  RH WIND       PRES   REMARKS
TUCSON         SUNNY     80  30  16 E3        29.94S
DAVIS-MONTHAN  SUNNY     79  29  16 S8G18     29.94R
RYAN FIELD     SUNNY     81  32  17 SW7       29.93R
NOGALES        SUNNY     76  32  20 S13G22    30.01S
SIERRA VISTA   SUNNY     72  25  17 SE8       30.06R
DOUGLAS        LGT RAIN  73  31  21 S15       30.04S
SAFFORD        SUNNY     79  25  13 E8        29.94R
$$

AZZ020-021-025-026-031-261600-
SOUTHWEST ARIZONA

CITY           SKY/WX    TMP DP  RH WIND       PRES   REMARKS
YUMA           MOSUNNY   71  40  32 S6        29.81R
$$

CAZ031-033-041-043-047-048-061-261600-
SOUTHERN CALIFORNIA

CITY           SKY/WX    TMP DP  RH WIND       PRES   REMARKS
DOWNTOWN L.A.  CLOUDY    64  54  69 CALM      29.95S
L.A. AIRPORT   CLOUDY    63  53  70 CALM      29.96R
SAN DIEGO      CLOUDY    64  51  62 S6        29.99R
BURBANK        CLOUDY    59  50  72 S6        29.96R
ONTARIO        CLOUDY    60  47  61 SW7       29.97R
RIVERSIDE      CLOUDY    60  49  66 CALM      29.97R
PALM SPRINGS   SUNNY     71  43  36 NW14      29.79R
EL CENTRO NAS  MOSUNNY   72  40  31 W17       29.80
IMPERIAL       LGT RAIN  71  44  37 W13       29.78R
BLYTHE         SUNNY     72  45  37 S14       29.78R
NEEDLES        SUNNY     79  29  16 SW17      29.76R
$$

NVZ020-UTZ003-261600-
SOUTHERN NEVADA-UTAH

CITY           SKY/WX    TMP DP  RH WIND       PRES   REMARKS
LAS VEGAS      SUNNY     73  26  17 S16G23    29.71R
SALT LAKE CITY CLOUDY    57  37  47 N13       29.79R
$$

NMZ009-TXZ055-261600-
NEW MEXICO-WEST TEXAS

CITY           SKY/WX    TMP DP  RH WIND       PRES   REMARKS
ALBUQUERQUE    MOSUNNY   69  14  12 W6        30.06S
EL PASO        PTSUNNY   79  28  15 W17       30.02R
$$


........................KEY........................
SKY/WX - SKY CONDITION/WEATHER
TMP    - TEMPERATURE IN FAHRENHEIT
DP     - DEWPOINT IN FAHRENHEIT
RH     - RELATIVE HUMIDITY IN PERCENT
WIND   - DIRECTION AND SPEED IN MILES PER HOUR (MPH)
VRB    - VARIABLE WIND DIRECTION
PRES   - MEAN SEA LEVEL PRESSURE IN INCHES OF MERCURY
         F - FALLING PRESSURE   R - RISING PRESSURE
         S - STEADY PRESSURE
VSB    - VISIBILITY IN MILES
HX     - HEAT INDEX IN FAHRENHEIT
WCI    - WIND CHILL INDEX IN FAHRENHEIT
TC     - TEMPERATURE IN CELSIUS WHICH IS ALSO KNOWN AS
         TEMPERATURE IN CENTIGRADE
AFB    - AIR FORCE BASE
         LUKE AFB IS LUKE AIR FORCE BASE
         DAVIS-MONTHAN IS DAVIS-MONTHAN AIR FORCE BASE
NAS    - NAVAL AIR STATION
         EL CENTRO NAS IS EL CENTRO NAVAL AIR STATION
N/A    - NOT AVAILABLE





USA.gov is the U.S. government's official web portal to all federal, state and local government web resources and services.